Time,TemperatureF,DewpointF,PressureIn,WindDirection,WindDirectionDegrees,WindSpeedMPH,WindSpeedGustMPH,Humidity,HourlyPrecipIn,Conditions,Clouds,dailyrainin,SoftwareType,DateUTC
2013-02-11 00:00:00,41.5,33.5,30.27,WNW,284,4.0,15.0,73,0.00,,,0.00,Weather View 32 v70,2013-02-11 08:00:00,
2013-02-11 00:05:00,41.6,33.6,30.27,NW,317,10.0,15.0,73,0.00,,,0.00,Weather View 32 v70,2013-02-11 08:05:00,
2013-02-11 00:10:00,41.5,33.5,30.27,WNW,292,3.0,15.0,73,0.00,,,0.00,Weather View 32 v70,2013-02-11 08:10:00,
2013-02-11 00:15:00,41.6,33.6,30.26,West,274,4.0,16.0,73,0.00,,,0.00,Weather View 32 v70,2013-02-11 08:15:00,
2013-02-11 00:20:00,41.5,33.5,30.27,West,263,5.0,16.0,73,0.00,,,0.00,Weather View 32 v70,2013-02-11 08:20:00,
2013-02-11 00:25:00,41.5,33.5,30.27,NW,317,8.0,16.0,73,0.00,,,0.00,Weather View 32 v70,2013-02-11 08:25:00,
2013-02-11 00:30:00,41.3,33.3,30.26,WNW,286,2.0,16.0,73,0.00,,,0.00,Weather View 32 v70,2013-02-11 08:30:00,
2013-02-11 00:35:00,41.5,33.5,30.26,WSW,242,7.0,16.0,73,0.00,,,0.00,Weather View 32 v70,2013-02-11 08:35:00,
2013-02-11 00:40:00,41.6,33.6,30.26,WSW,251,3.0,16.0,73,0.00,,,0.00,Weather View 32 v70,2013-02-11 08:40:00,
2013-02-11 00:45:00,41.6,33.6,30.26,WSW,254,10.0,16.0,73,0.00,,,0.00,Weather View 32 v70,2013-02-11 08:45:00,
2013-02-11 00:50:00,41.6,33.2,30.26,West,276,7.0,17.0,72,0.00,,,0.00,Weather View 32 v70,2013-02-11 08:50:00,
2013-02-11 00:55:00,41.8,33.4,30.26,WSW,247,7.0,17.0,72,0.00,,,0.00,Weather View 32 v70,2013-02-11 08:55:00,
2013-02-11 01:00:00,41.6,33.2,30.26,WSW,243,6.0,17.0,72,0.00,,,0.00,Weather View 32 v70,2013-02-11 09:00:00,
2013-02-11 01:05:00,41.6,33.2,30.26,West,262,2.0,17.0,72,0.00,,,0.00,Weather View 32 v70,2013-02-11 09:05:00,
2013-02-11 01:10:00,41.6,33.2,30.26,West,272,4.0,17.0,72,0.00,,,0.00,Weather View 32 v70,2013-02-11 09:10:00,
2013-02-11 01:15:00,41.6,33.2,30.26,SW,232,10.0,17.0,72,0.00,,,0.00,Weather View 32 v70,2013-02-11 09:15:00,
2013-02-11 01:20:00,41.8,33.4,30.26,West,259,3.0,18.0,72,0.00,,,0.00,Weather View 32 v70,2013-02-11 09:20:00,
2013-02-11 01:25:00,41.8,33.4,30.26,West,263,3.0,18.0,72,0.00,,,0.00,Weather View 32 v70,2013-02-11 09:25:00,
2013-02-11 01:30:00,41.6,33.2,30.26,West,281,4.0,18.0,72,0.00,,,0.00,Weather View 32 v70,2013-02-11 09:30:00,
2013-02-11 01:35:00,41.6,33.2,30.26,North,0,6.0,18.0,72,0.00,,,0.00,Weather View 32 v70,2013-02-11 09:35:00,
2013-02-11 01:40:00,41.8,33.1,30.26,WNW,297,2.0,18.0,71,0.00,,,0.00,Weather View 32 v70,2013-02-11 09:40:00,
2013-02-11 01:45:00,41.9,33.2,30.26,WNW,296,8.0,20.0,71,0.00,,,0.00,Weather View 32 v70,2013-02-11 09:45:00,
2013-02-11 01:50:00,41.9,33.2,30.27,West,269,3.0,20.0,71,0.00,,,0.00,Weather View 32 v70,2013-02-11 09:50:00,
2013-02-11 01:55:00,41.9,33.2,30.27,WNW,297,4.0,20.0,71,0.00,,,0.00,Weather View 32 v70,2013-02-11 09:55:00,
2013-02-11 02:00:00,41.9,33.2,30.27,West,280,9.0,20.0,71,0.00,,,0.00,Weather View 32 v70,2013-02-11 10:00:00,
2013-02-11 02:05:00,41.9,33.2,30.27,West,270,6.0,20.0,71,0.00,,,0.00,Weather View 32 v70,2013-02-11 10:05:00,
2013-02-11 02:10:00,41.9,33.2,30.28,WNW,282,0.0,20.0,71,0.00,,,0.00,Weather View 32 v70,2013-02-11 10:10:00,
2013-02-11 02:15:00,41.9,33.2,30.28,West,275,4.0,20.0,71,0.00,,,0.00,Weather View 32 v70,2013-02-11 10:15:00,
2013-02-11 02:20:00,41.9,33.5,30.28,WNW,290,5.0,20.0,72,0.00,,,0.00,Weather View 32 v70,2013-02-11 10:20:00,
2013-02-11 02:25:00,41.9,33.2,30.28,West,266,6.0,20.0,71,0.00,,,0.00,Weather View 32 v70,2013-02-11 10:25:00,
2013-02-11 02:30:00,41.9,33.2,30.28,West,275,9.0,20.0,71,0.00,,,0.00,Weather View 32 v70,2013-02-11 10:30:00,
2013-02-11 02:35:00,42.1,33.4,30.28,WNW,298,3.0,20.0,71,0.00,,,0.00,Weather View 32 v70,2013-02-11 10:35:00,
2013-02-11 02:40:00,42.1,33.0,30.28,NNW,329,6.0,20.0,70,0.00,,,0.00,Weather View 32 v70,2013-02-11 10:40:00,
2013-02-11 02:44:00,42.1,33.0,30.28,West,268,3.0,20.0,70,0.00,,,0.00,Weather View 32 v70,2013-02-11 10:44:00,
2013-02-11 02:49:00,42.2,33.1,30.28,West,281,0.0,18.0,70,0.00,,,0.00,Weather View 32 v70,2013-02-11 10:49:00,
2013-02-11 02:54:00,42.2,32.7,30.28,WSW,245,8.0,18.0,69,0.00,,,0.00,Weather View 32 v70,2013-02-11 10:54:00,
2013-02-11 02:59:00,42.2,33.1,30.28,WNW,286,2.0,18.0,70,0.00,,,0.00,Weather View 32 v70,2013-02-11 10:59:00,
2013-02-11 03:04:00,42.1,33.0,30.28,West,267,8.0,22.0,70,0.00,,,0.00,Weather View 32 v70,2013-02-11 11:04:00,
2013-02-11 03:09:00,42.1,33.0,30.28,West,259,6.0,22.0,70,0.00,,,0.00,Weather View 32 v70,2013-02-11 11:09:00,
2013-02-11 03:14:00,42.1,32.7,30.28,SW,224,11.0,22.0,69,0.00,,,0.00,Weather View 32 v70,2013-02-11 11:14:00,
2013-02-11 03:19:00,42.1,33.0,30.28,WSW,244,8.0,22.0,70,0.00,,,0.00,Weather View 32 v70,2013-02-11 11:19:00,
2013-02-11 03:25:00,41.9,32.8,30.27,West,261,2.0,22.0,70,0.00,,,0.00,Weather View 32 v70,2013-02-11 11:25:00,
2013-02-11 03:29:00,41.9,33.2,30.27,West,274,9.0,22.0,71,0.00,,,0.00,Weather View 32 v70,2013-02-11 11:29:00,
2013-02-11 03:34:00,42.1,33.0,30.27,West,263,8.0,22.0,70,0.00,,,0.00,Weather View 32 v70,2013-02-11 11:34:00,
2013-02-11 03:39:00,42.1,33.0,30.28,West,265,8.0,22.0,70,0.00,,,0.00,Weather View 32 v70,2013-02-11 11:39:00,
2013-02-11 03:44:00,42.1,33.0,30.28,WSW,252,7.0,24.0,70,0.00,,,0.00,Weather View 32 v70,2013-02-11 11:44:00,
2013-02-11 03:49:00,42.1,33.0,30.28,WSW,252,5.0,24.0,70,0.00,,,0.00,Weather View 32 v70,2013-02-11 11:49:00,
2013-02-11 03:54:00,41.8,33.1,30.27,West,275,4.0,24.0,71,0.00,,,0.00,Weather View 32 v70,2013-02-11 11:54:00,
2013-02-11 03:59:00,41.6,32.9,30.27,West,270,3.0,24.0,71,0.00,,,0.00,Weather View 32 v70,2013-02-11 11:59:00,
2013-02-11 04:04:00,41.8,32.7,30.27,West,266,4.0,24.0,70,0.00,,,0.00,Weather View 32 v70,2013-02-11 12:04:00,
2013-02-11 04:09:00,41.6,32.9,30.27,West,263,10.0,24.0,71,0.00,,,0.00,Weather View 32 v70,2013-02-11 12:09:00,
2013-02-11 04:14:00,41.6,32.9,30.27,WNW,284,1.0,24.0,71,0.00,,,0.00,Weather View 32 v70,2013-02-11 12:14:00,
2013-02-11 04:19:00,41.6,32.9,30.27,West,275,3.0,24.0,71,0.00,,,0.00,Weather View 32 v70,2013-02-11 12:19:00,
2013-02-11 04:24:00,41.6,32.9,30.27,West,279,3.0,24.0,71,0.00,,,0.00,Weather View 32 v70,2013-02-11 12:24:00,
2013-02-11 04:29:00,41.6,32.9,30.27,WSW,257,1.0,24.0,71,0.00,,,0.00,Weather View 32 v70,2013-02-11 12:29:00,
2013-02-11 04:34:00,41.6,32.5,30.27,WNW,300,15.0,24.0,70,0.00,,,0.00,Weather View 32 v70,2013-02-11 12:34:00,
2013-02-11 04:39:00,41.6,32.5,30.27,WNW,291,9.0,24.0,70,0.00,,,0.00,Weather View 32 v70,2013-02-11 12:39:00,
2013-02-11 04:44:00,41.5,32.8,30.27,West,280,6.0,19.0,71,0.00,,,0.00,Weather View 32 v70,2013-02-11 12:44:00,
2013-02-11 04:49:00,41.5,32.8,30.27,WSW,254,8.0,19.0,71,0.00,,,0.00,Weather View 32 v70,2013-02-11 12:49:00,
2013-02-11 04:54:00,41.6,32.5,30.27,West,278,7.0,20.0,70,0.00,,,0.00,Weather View 32 v70,2013-02-11 12:54:00,
2013-02-11 04:59:00,41.5,32.8,30.27,WSW,244,16.0,20.0,71,0.00,,,0.00,Weather View 32 v70,2013-02-11 12:59:00,
2013-02-11 05:04:00,41.5,32.8,30.27,NW,315,4.0,20.0,71,0.00,,,0.00,Weather View 32 v70,2013-02-11 13:04:00,
2013-02-11 05:09:00,41.5,32.4,30.26,WSW,246,15.0,20.0,70,0.00,,,0.00,Weather View 32 v70,2013-02-11 13:09:00,
2013-02-11 05:14:00,41.6,32.5,30.26,WNW,293,6.0,21.0,70,0.00,,,0.00,Weather View 32 v70,2013-02-11 13:14:00,
2013-02-11 05:19:00,41.5,32.4,30.26,West,271,2.0,21.0,70,0.00,,,0.00,Weather View 32 v70,2013-02-11 13:19:00,
2013-02-11 05:24:00,41.6,32.5,30.27,WNW,298,14.0,22.0,70,0.00,,,0.00,Weather View 32 v70,2013-02-11 13:24:00,
2013-02-11 05:29:00,41.8,32.4,30.27,WSW,240,12.0,22.0,69,0.00,,,0.00,Weather View 32 v70,2013-02-11 13:29:00,
2013-02-11 05:34:00,41.6,32.2,30.26,West,281,2.0,22.0,69,0.00,,,0.00,Weather View 32 v70,2013-02-11 13:34:00,
2013-02-11 05:39:00,41.8,32.4,30.26,West,265,11.0,22.0,69,0.00,,,0.00,Weather View 32 v70,2013-02-11 13:39:00,
2013-02-11 05:44:00,41.8,32.4,30.26,WNW,301,3.0,22.0,69,0.00,,,0.00,Weather View 32 v70,2013-02-11 13:44:00,
2013-02-11 05:49:00,41.6,32.5,30.27,WSW,257,9.0,22.0,70,0.00,,,0.00,Weather View 32 v70,2013-02-11 13:49:00,
2013-02-11 05:54:00,41.8,32.4,30.27,WSW,251,5.0,22.0,69,0.00,,,0.00,Weather View 32 v70,2013-02-11 13:54:00,
2013-02-11 06:00:00,41.6,32.2,30.27,NW,304,8.0,22.0,69,0.00,,,0.00,Weather View 32 v70,2013-02-11 14:00:00,
2013-02-11 06:05:00,41.6,32.5,30.27,West,261,8.0,22.0,70,0.00,,,0.00,Weather View 32 v70,2013-02-11 14:05:00,
2013-02-11 06:10:00,41.5,32.4,30.28,WNW,288,3.0,22.0,70,0.00,,,0.00,Weather View 32 v70,2013-02-11 14:10:00,
2013-02-11 06:15:00,41.5,32.4,30.27,West,272,8.0,22.0,70,0.00,,,0.00,Weather View 32 v70,2013-02-11 14:15:00,
2013-02-11 06:20:00,41.6,32.5,30.27,WSW,245,14.0,22.0,70,0.00,,,0.00,Weather View 32 v70,2013-02-11 14:20:00,
2013-02-11 06:25:00,41.5,32.8,30.27,WNW,284,4.0,21.0,71,0.00,,,0.00,Weather View 32 v70,2013-02-11 14:25:00,
2013-02-11 06:29:00,41.5,32.4,30.27,WSW,256,13.0,21.0,70,0.00,,,0.00,Weather View 32 v70,2013-02-11 14:29:00,
2013-02-11 06:34:00,41.5,32.4,30.27,North,0,6.0,25.0,70,0.00,,,0.00,Weather View 32 v70,2013-02-11 14:34:00,
2013-02-11 06:39:00,41.8,32.4,30.28,WSW,254,4.0,28.0,69,0.00,,,0.00,Weather View 32 v70,2013-02-11 14:39:00,
2013-02-11 06:44:00,41.8,32.4,30.28,West,274,4.0,28.0,69,0.00,,,0.00,Weather View 32 v70,2013-02-11 14:44:00,
2013-02-11 06:50:00,41.6,32.2,30.28,NW,313,2.0,28.0,69,0.00,,,0.00,Weather View 32 v70,2013-02-11 14:50:00,
2013-02-11 06:54:00,41.6,32.2,30.28,West,269,6.0,28.0,69,0.00,,,0.00,Weather View 32 v70,2013-02-11 14:54:00,
2013-02-11 06:59:00,41.8,32.4,30.28,West,263,4.0,28.0,69,0.00,,,0.00,Weather View 32 v70,2013-02-11 14:59:00,
2013-02-11 07:04:00,41.6,32.2,30.27,WNW,290,4.0,28.0,69,0.00,,,0.00,Weather View 32 v70,2013-02-11 15:04:00,
2013-02-11 07:09:00,41.6,32.2,30.27,West,260,8.0,28.0,69,0.00,,,0.00,Weather View 32 v70,2013-02-11 15:09:00,
2013-02-11 07:14:00,41.6,32.2,30.27,West,275,10.0,28.0,69,0.00,,,0.00,Weather View 32 v70,2013-02-11 15:14:00,
2013-02-11 07:19:00,41.6,32.2,30.28,NW,307,17.0,28.0,69,0.00,,,0.00,Weather View 32 v70,2013-02-11 15:19:00,
2013-02-11 07:24:00,41.6,32.2,30.28,NW,309,4.0,28.0,69,0.00,,,0.00,Weather View 32 v70,2013-02-11 15:24:00,
2013-02-11 07:29:00,41.6,32.2,30.28,West,275,4.0,28.0,69,0.00,,,0.00,Weather View 32 v70,2013-02-11 15:29:00,
2013-02-11 07:34:00,41.6,32.2,30.29,West,271,4.0,28.0,69,0.00,,,0.00,Weather View 32 v70,2013-02-11 15:34:00,
2013-02-11 07:39:00,41.6,32.2,30.28,WNW,290,4.0,23.0,69,0.00,,,0.00,Weather View 32 v70,2013-02-11 15:39:00,
2013-02-11 07:44:00,41.6,32.2,30.29,WNW,283,5.0,23.0,69,0.00,,,0.00,Weather View 32 v70,2013-02-11 15:44:00,
2013-02-11 07:49:00,41.8,32.0,30.29,NW,309,6.0,23.0,68,0.00,,,0.00,Weather View 32 v70,2013-02-11 15:49:00,
2013-02-11 07:54:00,41.9,32.1,30.29,NW,313,6.0,23.0,68,0.00,,,0.00,Weather View 32 v70,2013-02-11 15:54:00,
2013-02-11 07:59:00,42.1,31.9,30.30,WNW,293,13.0,23.0,67,0.00,,,0.00,Weather View 32 v70,2013-02-11 15:59:00,
2013-02-11 08:04:00,42.2,32.0,30.29,West,259,7.0,23.0,67,0.00,,,0.00,Weather View 32 v70,2013-02-11 16:04:00,
2013-02-11 08:09:00,42.3,32.1,30.29,WNW,288,10.0,23.0,67,0.00,,,0.00,Weather View 32 v70,2013-02-11 16:09:00,
2013-02-11 08:14:00,42.3,31.7,30.29,WNW,293,2.0,21.0,66,0.00,,,0.00,Weather View 32 v70,2013-02-11 16:14:00,
2013-02-11 08:19:00,42.5,31.9,30.29,North,0,10.0,21.0,66,0.00,,,0.00,Weather View 32 v70,2013-02-11 16:19:00,
2013-02-11 08:24:00,42.6,32.0,30.29,WNW,300,6.0,23.0,66,0.00,,,0.00,Weather View 32 v70,2013-02-11 16:24:00,
2013-02-11 08:29:00,42.8,31.8,30.29,WSW,253,10.0,23.0,65,0.00,,,0.00,Weather View 32 v70,2013-02-11 16:29:00,
2013-02-11 08:34:00,42.9,32.3,30.29,West,271,14.0,23.0,66,0.00,,,0.00,Weather View 32 v70,2013-02-11 16:34:00,
2013-02-11 08:39:00,42.9,32.3,30.29,West,259,9.0,23.0,66,0.00,,,0.00,Weather View 32 v70,2013-02-11 16:39:00,
2013-02-11 08:44:00,43.1,32.5,30.30,West,273,4.0,23.0,66,0.00,,,0.00,Weather View 32 v70,2013-02-11 16:44:00,
2013-02-11 08:50:00,43.1,32.1,30.30,WSW,254,6.0,23.0,65,0.00,,,0.00,Weather View 32 v70,2013-02-11 16:50:00,
2013-02-11 08:54:00,42.9,32.3,30.31,WSW,248,20.0,23.0,66,0.00,,,0.00,Weather View 32 v70,2013-02-11 16:54:00,
2013-02-11 08:59:00,43.2,32.2,30.30,WSW,257,7.0,23.0,65,0.00,,,0.00,Weather View 32 v70,2013-02-11 16:59:00,
2013-02-11 09:04:00,43.3,32.3,30.31,West,263,6.0,23.0,65,0.00,,,0.00,Weather View 32 v70,2013-02-11 17:04:00,
2013-02-11 09:10:00,43.3,32.3,30.31,WSW,250,3.0,23.0,65,0.00,,,0.00,Weather View 32 v70,2013-02-11 17:10:00,
2013-02-11 09:15:00,43.6,32.6,30.31,WSW,251,2.0,23.0,65,0.00,,,0.00,Weather View 32 v70,2013-02-11 17:15:00,
2013-02-11 09:20:00,44.1,32.7,30.30,WNW,284,5.0,23.0,64,0.00,,,0.00,Weather View 32 v70,2013-02-11 17:20:00,
2013-02-11 09:25:00,44.1,32.7,30.31,WNW,288,11.0,20.0,64,0.00,,,0.00,Weather View 32 v70,2013-02-11 17:25:00,
2013-02-11 09:30:00,44.1,33.1,30.31,West,263,6.0,20.0,65,0.00,,,0.00,Weather View 32 v70,2013-02-11 17:30:00,
2013-02-11 09:35:00,43.8,32.8,30.30,WNW,288,10.0,29.0,65,0.00,,,0.00,Weather View 32 v70,2013-02-11 17:35:00,
2013-02-11 09:40:00,43.9,32.9,30.30,WSW,238,7.0,29.0,65,0.00,,,0.00,Weather View 32 v70,2013-02-11 17:40:00,
2013-02-11 09:45:00,44.1,33.1,30.31,WSW,245,4.0,29.0,65,0.00,,,0.00,Weather View 32 v70,2013-02-11 17:45:00,
2013-02-11 09:50:00,44.2,33.2,30.31,West,271,2.0,29.0,65,0.00,,,0.00,Weather View 32 v70,2013-02-11 17:50:00,
2013-02-11 09:55:00,44.3,32.9,30.31,WNW,295,2.0,29.0,64,0.00,,,0.00,Weather View 32 v70,2013-02-11 17:55:00,
2013-02-11 10:00:00,44.5,33.1,30.31,West,270,7.0,29.0,64,0.00,,,0.00,Weather View 32 v70,2013-02-11 18:00:00,
2013-02-11 10:04:00,44.5,33.1,30.31,WSW,252,8.0,29.0,64,0.00,,,0.00,Weather View 32 v70,2013-02-11 18:04:00,
2013-02-11 10:10:00,44.5,33.1,30.32,WSW,257,6.0,29.0,64,0.00,,,0.00,Weather View 32 v70,2013-02-11 18:10:00,
2013-02-11 10:15:00,44.6,33.2,30.32,WSW,240,6.0,29.0,64,0.00,,,0.00,Weather View 32 v70,2013-02-11 18:15:00,
2013-02-11 10:20:00,44.9,33.0,30.31,WNW,300,7.0,29.0,63,0.00,,,0.00,Weather View 32 v70,2013-02-11 18:20:00,
2013-02-11 10:25:00,44.8,33.3,30.32,West,260,6.0,29.0,64,0.00,,,0.00,Weather View 32 v70,2013-02-11 18:25:00,
2013-02-11 10:29:00,45.1,33.6,30.31,West,265,2.0,29.0,64,0.00,,,0.00,Weather View 32 v70,2013-02-11 18:29:00,
2013-02-11 10:35:00,45.1,33.2,30.32,West,275,4.0,29.0,63,0.00,,,0.00,Weather View 32 v70,2013-02-11 18:35:00,
2013-02-11 10:40:00,44.6,33.2,30.32,WNW,292,1.0,20.0,64,0.00,,,0.00,Weather View 32 v70,2013-02-11 18:40:00,
2013-02-11 10:44:00,44.5,33.1,30.32,West,261,7.0,20.0,64,0.00,,,0.00,Weather View 32 v70,2013-02-11 18:44:00,
2013-02-11 10:50:00,44.3,33.3,30.32,SW,224,12.0,20.0,65,0.00,,,0.00,Weather View 32 v70,2013-02-11 18:50:00,
2013-02-11 10:54:00,44.3,32.9,30.32,West,277,5.0,20.0,64,0.00,,,0.00,Weather View 32 v70,2013-02-11 18:54:00,
2013-02-11 10:59:00,44.5,33.5,30.32,WSW,252,8.0,20.0,65,0.00,,,0.00,Weather View 32 v70,2013-02-11 18:59:00,
2013-02-11 11:04:00,44.8,33.3,30.33,WSW,258,7.0,20.0,64,0.00,,,0.00,Weather View 32 v70,2013-02-11 19:04:00,
2013-02-11 11:09:00,45.2,33.3,30.33,WSW,257,3.0,20.0,63,0.00,,,0.00,Weather View 32 v70,2013-02-11 19:09:00,
2013-02-11 11:14:00,45.5,33.6,30.33,NW,304,4.0,20.0,63,0.00,,,0.00,Weather View 32 v70,2013-02-11 19:14:00,
2013-02-11 11:19:00,45.5,33.6,30.33,SW,234,4.0,20.0,63,0.00,,,0.00,Weather View 32 v70,2013-02-11 19:19:00,
2013-02-11 11:24:00,45.5,33.6,30.33,West,281,4.0,20.0,63,0.00,,,0.00,Weather View 32 v70,2013-02-11 19:24:00,
2013-02-11 11:29:00,45.7,33.8,30.33,NW,304,1.0,20.0,63,0.00,,,0.00,Weather View 32 v70,2013-02-11 19:29:00,
2013-02-11 11:34:00,45.8,33.5,30.33,West,281,7.0,20.0,62,0.00,,,0.00,Weather View 32 v70,2013-02-11 19:34:00,
2013-02-11 11:39:00,46.1,34.2,30.33,NW,321,1.0,21.0,63,0.00,,,0.00,Weather View 32 v70,2013-02-11 19:39:00,
2013-02-11 11:44:00,46.5,34.2,30.33,WNW,292,8.0,21.0,62,0.00,,,0.00,Weather View 32 v70,2013-02-11 19:44:00,
2013-02-11 11:49:00,46.4,33.7,30.32,WSW,253,4.0,21.0,61,0.00,,,0.00,Weather View 32 v70,2013-02-11 19:49:00,
2013-02-11 11:54:00,46.0,33.7,30.32,West,278,5.0,21.0,62,0.00,,,0.00,Weather View 32 v70,2013-02-11 19:54:00,
2013-02-11 11:59:00,46.1,34.2,30.32,West,278,4.0,21.0,63,0.00,,,0.00,Weather View 32 v70,2013-02-11 19:59:00,
2013-02-11 12:04:00,46.1,33.8,30.31,West,274,7.0,21.0,62,0.00,,,0.00,Weather View 32 v70,2013-02-11 20:04:00,
2013-02-11 12:10:00,46.4,34.5,30.32,West,281,6.0,21.0,63,0.00,,,0.00,Weather View 32 v70,2013-02-11 20:10:00,
2013-02-11 12:15:00,46.1,34.2,30.32,WNW,287,10.0,21.0,63,0.00,,,0.00,Weather View 32 v70,2013-02-11 20:15:00,
2013-02-11 12:20:00,46.1,34.6,30.32,West,264,6.0,21.0,64,0.00,,,0.00,Weather View 32 v70,2013-02-11 20:20:00,
2013-02-11 12:25:00,45.8,34.3,30.32,West,261,7.0,21.0,64,0.00,,,0.00,Weather View 32 v70,2013-02-11 20:25:00,
2013-02-11 12:30:00,45.5,34.0,30.32,WNW,288,4.0,24.0,64,0.00,,,0.00,Weather View 32 v70,2013-02-11 20:30:00,
2013-02-11 12:35:00,45.4,34.3,30.33,WNW,297,7.0,25.0,65,0.00,,,0.00,Weather View 32 v70,2013-02-11 20:35:00,
2013-02-11 12:40:00,45.5,34.4,30.32,West,261,6.0,25.0,65,0.00,,,0.00,Weather View 32 v70,2013-02-11 20:40:00,
2013-02-11 12:45:00,45.5,34.4,30.33,NNW,341,9.0,25.0,65,0.00,,,0.00,Weather View 32 v70,2013-02-11 20:45:00,
2013-02-11 12:50:00,45.5,34.4,30.33,WSW,243,3.0,25.0,65,0.00,,,0.00,Weather View 32 v70,2013-02-11 20:50:00,
2013-02-11 12:54:00,45.4,34.7,30.34,WNW,288,2.0,25.0,66,0.00,,,0.00,Weather View 32 v70,2013-02-11 20:54:00,
2013-02-11 13:00:00,45.1,34.8,30.34,WNW,290,1.0,25.0,67,0.00,,,0.00,Weather View 32 v70,2013-02-11 21:00:00,
2013-02-11 13:05:00,45.4,35.1,30.33,West,265,0.0,25.0,67,0.00,,,0.00,Weather View 32 v70,2013-02-11 21:05:00,
2013-02-11 13:09:00,45.2,34.5,30.33,West,279,4.0,25.0,66,0.00,,,0.00,Weather View 32 v70,2013-02-11 21:09:00,
2013-02-11 13:15:00,45.4,35.1,30.33,WSW,247,7.0,25.0,67,0.00,,,0.00,Weather View 32 v70,2013-02-11 21:15:00,
2013-02-11 13:19:00,45.1,34.8,30.33,West,267,7.0,25.0,67,0.00,,,0.00,Weather View 32 v70,2013-02-11 21:19:00,
2013-02-11 13:24:00,44.9,34.6,30.33,West,269,2.0,25.0,67,0.00,,,0.00,Weather View 32 v70,2013-02-11 21:24:00,
2013-02-11 13:29:00,44.9,34.6,30.33,WSW,244,14.0,25.0,67,0.00,,,0.00,Weather View 32 v70,2013-02-11 21:29:00,
2013-02-11 13:34:00,44.8,34.5,30.33,West,259,0.0,21.0,67,0.00,,,0.00,Weather View 32 v70,2013-02-11 21:34:00,
2013-02-11 13:39:00,44.9,34.6,30.33,SSW,198,15.0,21.0,67,0.00,,,0.00,Weather View 32 v70,2013-02-11 21:39:00,
2013-02-11 13:44:00,45.4,35.1,30.33,SSW,209,0.0,21.0,67,0.00,,,0.00,Weather View 32 v70,2013-02-11 21:44:00,
2013-02-11 13:50:00,45.7,35.0,30.33,WNW,294,7.0,21.0,66,0.00,,,0.00,Weather View 32 v70,2013-02-11 21:50:00,
2013-02-11 13:55:00,45.7,35.0,30.32,SW,234,8.0,21.0,66,0.00,,,0.00,Weather View 32 v70,2013-02-11 21:55:00,
2013-02-11 14:00:00,45.4,34.7,30.32,WSW,244,17.0,21.0,66,0.00,,,0.00,Weather View 32 v70,2013-02-11 22:00:00,
2013-02-11 14:05:00,45.5,34.8,30.32,WSW,254,4.0,21.0,66,0.00,,,0.00,Weather View 32 v70,2013-02-11 22:05:00,
2013-02-11 14:09:00,45.5,34.8,30.32,West,275,11.0,21.0,66,0.00,,,0.00,Weather View 32 v70,2013-02-11 22:09:00,
2013-02-11 14:14:00,45.5,34.8,30.31,WSW,248,12.0,21.0,66,0.00,,,0.00,Weather View 32 v70,2013-02-11 22:14:00,
2013-02-11 14:19:00,45.8,35.1,30.31,West,278,12.0,21.0,66,0.00,,,0.00,Weather View 32 v70,2013-02-11 22:19:00,
2013-02-11 14:24:00,45.8,34.7,30.31,West,281,7.0,21.0,65,0.00,,,0.00,Weather View 32 v70,2013-02-11 22:24:00,
2013-02-11 14:29:00,46.1,35.4,30.31,West,278,6.0,21.0,66,0.00,,,0.00,Weather View 32 v70,2013-02-11 22:29:00,
2013-02-11 14:34:00,46.2,35.5,30.31,WNW,286,12.0,21.0,66,0.00,,,0.00,Weather View 32 v70,2013-02-11 22:34:00,
2013-02-11 14:39:00,46.5,35.4,30.31,West,267,4.0,21.0,65,0.00,,,0.00,Weather View 32 v70,2013-02-11 22:39:00,
2013-02-11 14:44:00,46.4,35.3,30.31,West,275,15.0,21.0,65,0.00,,,0.00,Weather View 32 v70,2013-02-11 22:44:00,
2013-02-11 14:49:00,46.5,35.4,30.31,West,259,10.0,22.0,65,0.00,,,0.00,Weather View 32 v70,2013-02-11 22:49:00,
2013-02-11 14:54:00,46.7,35.5,30.32,West,281,16.0,22.0,65,0.00,,,0.00,Weather View 32 v70,2013-02-11 22:54:00,
2013-02-11 14:59:00,46.5,35.0,30.32,WNW,282,6.0,22.0,64,0.00,,,0.00,Weather View 32 v70,2013-02-11 22:59:00,
2013-02-11 15:04:00,46.4,35.3,30.32,West,271,5.0,22.0,65,0.00,,,0.00,Weather View 32 v70,2013-02-11 23:04:00,
2013-02-11 15:09:00,46.2,35.5,30.32,NW,321,10.0,22.0,66,0.00,,,0.00,Weather View 32 v70,2013-02-11 23:09:00,
2013-02-11 15:14:00,46.0,35.6,30.32,West,263,14.0,22.0,67,0.00,,,0.00,Weather View 32 v70,2013-02-11 23:14:00,
2013-02-11 15:19:00,45.8,35.5,30.32,WNW,298,5.0,22.0,67,0.00,,,0.00,Weather View 32 v70,2013-02-11 23:19:00,
2013-02-11 15:24:00,45.8,35.5,30.32,WNW,294,2.0,22.0,67,0.00,,,0.00,Weather View 32 v70,2013-02-11 23:24:00,
2013-02-11 15:29:00,45.7,35.4,30.33,WNW,298,1.0,22.0,67,0.00,,,0.00,Weather View 32 v70,2013-02-11 23:29:00,
2013-02-11 15:34:00,45.7,35.4,30.33,West,278,4.0,22.0,67,0.00,,,0.00,Weather View 32 v70,2013-02-11 23:34:00,
2013-02-11 15:39:00,45.4,35.4,30.33,West,268,5.0,22.0,68,0.00,,,0.00,Weather View 32 v70,2013-02-11 23:39:00,
2013-02-11 15:45:00,45.2,35.3,30.33,West,259,2.0,22.0,68,0.00,,,0.00,Weather View 32 v70,2013-02-11 23:45:00,
2013-02-11 15:50:00,45.4,35.4,30.33,NW,309,0.0,19.0,68,0.00,,,0.00,Weather View 32 v70,2013-02-11 23:50:00,
2013-02-11 15:55:00,45.4,35.8,30.33,WNW,292,0.0,19.0,69,0.00,,,0.00,Weather View 32 v70,2013-02-11 23:55:00,
2013-02-11 16:00:00,45.1,35.5,30.33,West,264,4.0,17.0,69,0.00,,,0.00,Weather View 32 v70,2013-02-12 00:00:00,
2013-02-11 16:04:00,45.1,35.9,30.33,WNW,292,0.0,17.0,70,0.00,,,0.00,Weather View 32 v70,2013-02-12 00:04:00,
2013-02-11 16:09:00,44.8,35.6,30.33,WNW,287,3.0,14.0,70,0.00,,,0.00,Weather View 32 v70,2013-02-12 00:09:00,
2013-02-11 16:14:00,44.6,35.8,30.33,WNW,295,2.0,14.0,71,0.00,,,0.00,Weather View 32 v70,2013-02-12 00:14:00,
2013-02-11 16:19:00,44.5,35.7,30.33,WNW,298,4.0,12.0,71,0.00,,,0.00,Weather View 32 v70,2013-02-12 00:19:00,
2013-02-11 16:24:00,44.5,36.0,30.33,WNW,290,1.0,12.0,72,0.00,,,0.00,Weather View 32 v70,2013-02-12 00:24:00,
2013-02-11 16:29:00,44.5,36.0,30.33,WSW,252,5.0,12.0,72,0.00,,,0.00,Weather View 32 v70,2013-02-12 00:29:00,
2013-02-11 16:34:00,44.5,36.0,30.33,West,267,6.0,12.0,72,0.00,,,0.00,Weather View 32 v70,2013-02-12 00:34:00,
2013-02-11 16:39:00,44.3,35.8,30.33,West,261,3.0,12.0,72,0.00,,,0.00,Weather View 32 v70,2013-02-12 00:39:00,
2013-02-11 16:44:00,44.3,35.8,30.33,West,280,2.0,12.0,72,0.00,,,0.00,Weather View 32 v70,2013-02-12 00:44:00,
2013-02-11 16:49:00,44.3,35.8,30.33,WNW,299,4.0,12.0,72,0.00,,,0.00,Weather View 32 v70,2013-02-12 00:49:00,
2013-02-11 16:54:00,44.3,35.8,30.34,West,277,2.0,12.0,72,0.00,,,0.00,Weather View 32 v70,2013-02-12 00:54:00,
2013-02-11 16:59:00,44.3,35.8,30.33,WNW,290,0.0,12.0,72,0.00,,,0.00,Weather View 32 v70,2013-02-12 00:59:00,
2013-02-11 17:04:00,44.3,36.2,30.33,WNW,292,0.0,12.0,73,0.00,,,0.00,Weather View 32 v70,2013-02-12 01:04:00,
2013-02-11 17:09:00,44.2,36.1,30.33,NNW,327,4.0,12.0,73,0.00,,,0.00,Weather View 32 v70,2013-02-12 01:09:00,
2013-02-11 17:14:00,44.2,36.1,30.33,WNW,302,5.0,13.0,73,0.00,,,0.00,Weather View 32 v70,2013-02-12 01:14:00,
2013-02-11 17:19:00,44.1,36.3,30.33,West,266,1.0,13.0,74,0.00,,,0.00,Weather View 32 v70,2013-02-12 01:19:00,
2013-02-11 17:24:00,43.9,36.1,30.33,West,281,1.0,13.0,74,0.00,,,0.00,Weather View 32 v70,2013-02-12 01:24:00,
2013-02-11 17:29:00,43.9,36.1,30.33,WNW,286,0.0,13.0,74,0.00,,,0.00,Weather View 32 v70,2013-02-12 01:29:00,
2013-02-11 17:34:00,43.9,36.5,30.33,WNW,286,5.0,13.0,75,0.00,,,0.00,Weather View 32 v70,2013-02-12 01:34:00,
2013-02-11 17:39:00,43.9,36.5,30.33,WSW,257,3.0,13.0,75,0.00,,,0.00,Weather View 32 v70,2013-02-12 01:39:00,
2013-02-11 17:44:00,43.9,36.5,30.32,WNW,292,0.0,13.0,75,0.00,,,0.00,Weather View 32 v70,2013-02-12 01:44:00,
2013-02-11 17:49:00,43.8,36.7,30.32,SW,221,6.0,13.0,76,0.00,,,0.00,Weather View 32 v70,2013-02-12 01:49:00,
2013-02-11 17:54:00,43.8,36.7,30.32,WNW,295,5.0,13.0,76,0.00,,,0.00,Weather View 32 v70,2013-02-12 01:54:00,
2013-02-11 17:59:00,43.6,36.5,30.32,West,273,8.0,13.0,76,0.00,,,0.00,Weather View 32 v70,2013-02-12 01:59:00,
2013-02-11 18:04:00,43.8,37.1,30.32,WNW,300,4.0,13.0,77,0.00,,,0.00,Weather View 32 v70,2013-02-12 02:04:00,
2013-02-11 18:09:00,43.8,37.1,30.32,WSW,239,10.0,13.0,77,0.00,,,0.00,Weather View 32 v70,2013-02-12 02:09:00,
2013-02-11 18:14:00,43.6,36.9,30.32,West,273,0.0,13.0,77,0.00,,,0.00,Weather View 32 v70,2013-02-12 02:14:00,
2013-02-11 18:19:00,43.6,36.9,30.32,WNW,297,3.0,13.0,77,0.00,,,0.00,Weather View 32 v70,2013-02-12 02:19:00,
2013-02-11 18:24:00,43.8,37.1,30.32,West,273,8.0,15.0,77,0.00,,,0.00,Weather View 32 v70,2013-02-12 02:24:00,
2013-02-11 18:29:00,43.8,37.1,30.32,NW,307,1.0,16.0,77,0.00,,,0.00,Weather View 32 v70,2013-02-12 02:29:00,
2013-02-11 18:34:00,43.8,37.1,30.32,West,279,0.0,16.0,77,0.00,,,0.00,Weather View 32 v70,2013-02-12 02:34:00,
2013-02-11 18:40:00,43.8,37.1,30.32,West,279,1.0,16.0,77,0.00,,,0.00,Weather View 32 v70,2013-02-12 02:40:00,
2013-02-11 18:45:00,43.8,37.1,30.32,WNW,293,1.0,16.0,77,0.00,,,0.00,Weather View 32 v70,2013-02-12 02:45:00,
2013-02-11 18:50:00,43.8,37.1,30.32,NNW,331,0.0,16.0,77,0.00,,,0.00,Weather View 32 v70,2013-02-12 02:50:00,
2013-02-11 18:55:00,43.8,37.1,30.32,NW,314,0.0,16.0,77,0.00,,,0.00,Weather View 32 v70,2013-02-12 02:55:00,
2013-02-11 19:00:00,43.8,37.1,30.32,West,269,6.0,16.0,77,0.00,,,0.00,Weather View 32 v70,2013-02-12 03:00:00,
2013-02-11 19:05:00,43.8,37.1,30.32,WNW,288,4.0,16.0,77,0.00,,,0.00,Weather View 32 v70,2013-02-12 03:05:00,
2013-02-11 19:10:00,43.9,37.5,30.32,WNW,296,3.0,19.0,78,0.00,,,0.00,Weather View 32 v70,2013-02-12 03:10:00,
2013-02-11 19:15:00,43.8,37.4,30.32,West,263,13.0,19.0,78,0.00,,,0.00,Weather View 32 v70,2013-02-12 03:15:00,
2013-02-11 19:20:00,43.8,37.7,30.32,WNW,287,9.0,19.0,79,0.00,,,0.00,Weather View 32 v70,2013-02-12 03:20:00,
2013-02-11 19:25:00,43.8,37.7,30.32,West,265,15.0,19.0,79,0.00,,,0.00,Weather View 32 v70,2013-02-12 03:25:00,
2013-02-11 19:30:00,43.9,37.8,30.32,West,269,6.0,19.0,79,0.00,,,0.00,Weather View 32 v70,2013-02-12 03:30:00,
2013-02-11 19:35:00,43.8,37.7,30.33,WNW,284,6.0,19.0,79,0.00,,,0.00,Weather View 32 v70,2013-02-12 03:35:00,
2013-02-11 19:40:00,43.8,38.0,30.33,WNW,287,7.0,19.0,80,0.00,,,0.00,Weather View 32 v70,2013-02-12 03:40:00,
2013-02-11 19:45:00,43.8,37.7,30.33,WNW,302,3.0,19.0,79,0.00,,,0.00,Weather View 32 v70,2013-02-12 03:45:00,
2013-02-11 19:50:00,43.9,38.4,30.33,West,279,3.0,19.0,81,0.00,,,0.00,Weather View 32 v70,2013-02-12 03:50:00,
2013-02-11 19:54:00,43.9,37.8,30.33,WSW,250,1.0,19.0,79,0.00,,,0.00,Weather View 32 v70,2013-02-12 03:54:00,
2013-02-11 19:59:00,43.9,37.8,30.33,WNW,292,6.0,19.0,79,0.00,,,0.00,Weather View 32 v70,2013-02-12 03:59:00,
2013-02-11 20:04:00,43.9,37.8,30.33,West,280,6.0,19.0,79,0.00,,,0.00,Weather View 32 v70,2013-02-12 04:04:00,
2013-02-11 20:09:00,43.9,38.1,30.33,WNW,294,0.0,19.0,80,0.00,,,0.00,Weather View 32 v70,2013-02-12 04:09:00,
2013-02-11 20:14:00,43.8,38.0,30.33,West,276,5.0,19.0,80,0.00,,,0.00,Weather View 32 v70,2013-02-12 04:14:00,
2013-02-11 20:19:00,43.8,38.0,30.33,WSW,257,6.0,19.0,80,0.00,,,0.00,Weather View 32 v70,2013-02-12 04:19:00,
2013-02-11 20:24:00,43.8,38.3,30.33,NW,324,0.0,19.0,81,0.00,,,0.00,Weather View 32 v70,2013-02-12 04:24:00,
2013-02-11 20:29:00,43.8,38.3,30.33,West,277,5.0,19.0,81,0.00,,,0.00,Weather View 32 v70,2013-02-12 04:29:00,
2013-02-11 20:34:00,43.9,38.4,30.33,West,273,4.0,14.0,81,0.00,,,0.00,Weather View 32 v70,2013-02-12 04:34:00,
2013-02-11 20:39:00,43.9,38.4,30.33,WSW,252,10.0,16.0,81,0.00,,,0.00,Weather View 32 v70,2013-02-12 04:39:00,
2013-02-11 20:44:00,43.9,38.4,30.34,West,275,9.0,16.0,81,0.00,,,0.00,Weather View 32 v70,2013-02-12 04:44:00,
2013-02-11 20:49:00,43.9,38.4,30.33,WNW,294,4.0,16.0,81,0.00,,,0.00,Weather View 32 v70,2013-02-12 04:49:00,
2013-02-11 20:54:00,43.8,38.7,30.33,WNW,286,1.0,16.0,82,0.00,,,0.00,Weather View 32 v70,2013-02-12 04:54:00,
2013-02-11 20:59:00,43.8,38.7,30.33,West,276,3.0,16.0,82,0.00,,,0.00,Weather View 32 v70,2013-02-12 04:59:00,
2013-02-11 21:00:00,43.8,38.7,30.33,WSW,248,1.0,16.0,82,0.00,,,0.00,Weather View 32 v70,2013-02-12 05:00:00,
2013-02-11 21:05:00,43.8,38.7,30.33,WSW,238,11.0,16.0,82,0.00,,,0.00,Weather View 32 v70,2013-02-12 05:05:00,
2013-02-11 21:10:00,43.8,38.7,30.33,WSW,246,7.0,16.0,82,0.00,,,0.00,Weather View 32 v70,2013-02-12 05:10:00,
2013-02-11 21:15:00,43.8,39.0,30.33,West,277,5.0,16.0,83,0.00,,,0.00,Weather View 32 v70,2013-02-12 05:15:00,
2013-02-11 21:20:00,43.8,38.7,30.33,WSW,240,1.0,16.0,82,0.00,,,0.00,Weather View 32 v70,2013-02-12 05:20:00,
2013-02-11 21:25:00,43.9,38.8,30.33,West,269,0.0,16.0,82,0.00,,,0.00,Weather View 32 v70,2013-02-12 05:25:00,
2013-02-11 21:30:00,43.9,38.8,30.33,West,261,8.0,16.0,82,0.00,,,0.00,Weather View 32 v70,2013-02-12 05:30:00,
2013-02-11 21:35:00,43.9,38.8,30.33,WNW,286,1.0,16.0,82,0.00,,,0.00,Weather View 32 v70,2013-02-12 05:35:00,
2013-02-11 21:40:00,43.9,38.8,30.33,West,281,0.0,16.0,82,0.00,,,0.00,Weather View 32 v70,2013-02-12 05:40:00,
2013-02-11 21:45:00,44.1,39.0,30.33,West,263,7.0,16.0,82,0.00,,,0.00,Weather View 32 v70,2013-02-12 05:45:00,
2013-02-11 21:50:00,44.1,39.0,30.33,West,275,4.0,16.0,82,0.00,,,0.00,Weather View 32 v70,2013-02-12 05:50:00,
2013-02-11 21:55:00,44.2,38.7,30.33,WSW,244,8.0,16.0,81,0.00,,,0.00,Weather View 32 v70,2013-02-12 05:55:00,
2013-02-11 22:00:00,44.2,38.7,30.33,WNW,285,2.0,16.0,81,0.00,,,0.00,Weather View 32 v70,2013-02-12 06:00:00,
2013-02-11 22:05:00,44.3,38.8,30.33,WSW,244,7.0,16.0,81,0.00,,,0.00,Weather View 32 v70,2013-02-12 06:05:00,
2013-02-11 22:10:00,44.3,38.8,30.33,WSW,246,11.0,16.0,81,0.00,,,0.00,Weather View 32 v70,2013-02-12 06:10:00,
2013-02-11 22:15:00,44.3,38.8,30.33,West,267,7.0,16.0,81,0.00,,,0.00,Weather View 32 v70,2013-02-12 06:15:00,
2013-02-11 22:20:00,44.5,39.0,30.33,West,278,4.0,16.0,81,0.00,,,0.00,Weather View 32 v70,2013-02-12 06:20:00,
2013-02-11 22:25:00,44.3,38.8,30.34,West,281,3.0,15.0,81,0.00,,,0.00,Weather View 32 v70,2013-02-12 06:25:00,
2013-02-11 22:30:00,44.3,38.8,30.34,West,262,8.0,15.0,81,0.00,,,0.00,Weather View 32 v70,2013-02-12 06:30:00,
2013-02-11 22:35:00,44.3,38.8,30.34,SW,226,7.0,15.0,81,0.00,,,0.00,Weather View 32 v70,2013-02-12 06:35:00,
2013-02-11 22:40:00,44.5,38.7,30.34,West,264,2.0,15.0,80,0.00,,,0.00,Weather View 32 v70,2013-02-12 06:40:00,
2013-02-11 22:45:00,44.5,38.7,30.34,West,259,4.0,16.0,80,0.00,,,0.00,Weather View 32 v70,2013-02-12 06:45:00,
2013-02-11 22:50:00,44.5,39.0,30.34,SW,216,5.0,16.0,81,0.00,,,0.00,Weather View 32 v70,2013-02-12 06:50:00,
2013-02-11 22:55:00,44.5,39.0,30.34,NW,307,5.0,16.0,81,0.00,,,0.00,Weather View 32 v70,2013-02-12 06:55:00,
2013-02-11 23:00:00,44.6,39.1,30.34,WSW,254,6.0,16.0,81,0.00,,,0.00,Weather View 32 v70,2013-02-12 07:00:00,
2013-02-11 23:05:00,44.6,39.1,30.34,West,259,7.0,16.0,81,0.00,,,0.00,Weather View 32 v70,2013-02-12 07:05:00,
2013-02-11 23:10:00,44.6,39.1,30.34,NW,306,2.0,16.0,81,0.00,,,0.00,Weather View 32 v70,2013-02-12 07:10:00,
2013-02-11 23:15:00,44.6,39.1,30.34,West,279,3.0,16.0,81,0.00,,,0.00,Weather View 32 v70,2013-02-12 07:15:00,
2013-02-11 23:20:00,44.6,39.1,30.34,West,279,3.0,16.0,81,0.00,,,0.00,Weather View 32 v70,2013-02-12 07:20:00,
2013-02-11 23:25:00,44.6,39.1,30.34,West,262,5.0,16.0,81,0.00,,,0.00,Weather View 32 v70,2013-02-12 07:25:00,
2013-02-11 23:30:00,44.6,39.1,30.34,West,280,3.0,16.0,81,0.00,,,0.00,Weather View 32 v70,2013-02-12 07:30:00,
2013-02-11 23:35:00,44.6,39.1,30.34,SW,215,9.0,16.0,81,0.00,,,0.00,Weather View 32 v70,2013-02-12 07:35:00,
2013-02-11 23:40:00,44.8,39.3,30.34,WSW,257,7.0,16.0,81,0.00,,,0.00,Weather View 32 v70,2013-02-12 07:40:00,
2013-02-11 23:45:00,44.8,39.0,30.35,West,263,3.0,15.0,80,0.00,,,0.00,Weather View 32 v70,2013-02-12 07:45:00,
2013-02-11 23:50:00,44.6,39.1,30.35,West,265,4.0,15.0,81,0.00,,,0.00,Weather View 32 v70,2013-02-12 07:50:00,
2013-02-11 23:55:00,44.6,39.1,30.35,West,273,6.0,15.0,81,0.00,,,0.00,Weather View 32 v70,2013-02-12 07:55:00,